Location: Hohe Wand Kleine Kanzel
(47.8330°N, 16.0170°E)
Time: 18:00:21
(UTC+02:00)

Courier 1B Rocket - Pass Details

Date: 01 August 2021
Orbit: 920 x 1202 km, 28.3° (Epoch: 23 September)

Event Time Altitude Azimuth Distance (km) Brightness Sun altitude
Rises 05:10:26 0° 236° (SW) 3,646 - -4.1°
Exits shadow 05:12:05 - 228° (SW) 3,227 7.1 -3.8°
Reaches altitude 10° 05:15:16 10° 205° (SSW) 2,647 6.8 -3.4°
Maximum altitude 05:17:11 11° 187° (S) 2,528 6.8 -3.1°
Drops below altitude 10° 05:19:05 10° 169° (S) 2,618 7.1 -2.8°
Sets 05:23:47 0° 137° (SE) 3,544 8.1 -2.1°
